User: anonymous   Login
Location: Владивосток
(43.1151°N, 131.8856°E)
Time: 08:55:06
(UTC+10:00)
Language:

CUTE 1.7 + AOD 2 - Orbit

View from above orbital plane
View from above orbital plane
View from above satellite
View from above satellite

Ground track
Ground track

The orbit data is extracted from the following two-line orbital elements,

1 32785U 08021C   24109.50131702  .00009972  00000-0  89689-3 0  9991
2 32785  97.7490  75.3854 0011992 157.0045 203.1715 14.95794181866557
Epoch (UTC): 18 April 2024 12:01:53
Eccentricity: 0.0011992
inclination: 97.7490°
perigee height: 571 km
apogee height: 588 km
right ascension of ascending node: 75.3854°
argument of perigee: 157.0045°
revolutions per day: 14.95794181
mean anomaly at epoch: 203.1715°
orbit number at epoch: 86655

The dashed part of the orbit path shows where the satellite is in the earth's shadow,  

DLR